TimeCST,TemperatureF,Dew PointF,Humidity,Sea Level PressureIn,VisibilityMPH,Wind Direction,Wind SpeedMPH,Gust SpeedMPH,PrecipitationIn,Events,Conditions,WindDirDegrees,DateUTC
12:15 AM,26.6,23.7,89,29.91,10.0,SSW,4.6,-,N/A,,Overcast,200,2012-12-13 06:15:00
12:35 AM,26.2,23.0,88,29.91,10.0,SSW,4.6,-,N/A,,Overcast,210,2012-12-13 06:35:00
12:55 AM,25.7,22.8,89,29.91,10.0,SSW,3.5,-,N/A,,Overcast,200,2012-12-13 06:55:00
1:15 AM,23.4,21.2,91,29.91,10.0,Calm,Calm,-,N/A,,Overcast,0,2012-12-13 07:15:00
1:35 AM,22.8,21.2,93,29.91,10.0,Calm,Calm,-,N/A,,Scattered Clouds,0,2012-12-13 07:35:00
1:55 AM,21.2,19.8,94,29.92,7.0,Calm,Calm,-,N/A,,Clear,0,2012-12-13 07:55:00
2:15 AM,20.8,20.3,98,29.93,7.0,Calm,Calm,-,N/A,,Clear,0,2012-12-13 08:15:00
2:35 AM,21.0,20.3,97,29.93,5.0,Calm,Calm,-,N/A,,Clear,0,2012-12-13 08:35:00
2:55 AM,19.2,18.3,96,29.94,5.0,SW,3.5,-,N/A,,Clear,220,2012-12-13 08:55:00
3:15 AM,19.6,18.3,95,29.94,7.0,Calm,Calm,-,N/A,,Scattered Clouds,0,2012-12-13 09:15:00
3:35 AM,20.3,18.9,94,29.94,7.0,Calm,Calm,-,N/A,,Mostly Cloudy,0,2012-12-13 09:35:00
3:55 AM,20.8,19.4,94,29.94,10.0,Calm,Calm,-,N/A,,Overcast,0,2012-12-13 09:55:00
4:15 AM,20.8,19.2,93,29.95,10.0,Calm,Calm,-,N/A,,Mostly Cloudy,0,2012-12-13 10:15:00
4:35 AM,21.0,19.4,93,29.96,10.0,Calm,Calm,-,N/A,,Scattered Clouds,0,2012-12-13 10:35:00
4:55 AM,21.7,20.1,93,29.96,10.0,Calm,Calm,-,N/A,,Mostly Cloudy,0,2012-12-13 10:55:00
5:15 AM,22.3,20.7,93,29.96,10.0,NNE,4.6,-,N/A,,Mostly Cloudy,20,2012-12-13 11:15:00
5:35 AM,24.8,21.7,88,29.97,10.0,Calm,Calm,-,N/A,,Overcast,0,2012-12-13 11:35:00
5:55 AM,25.5,22.1,87,29.98,10.0,Calm,Calm,-,N/A,,Overcast,0,2012-12-13 11:55:00
6:15 AM,25.9,22.8,88,29.98,10.0,Calm,Calm,-,N/A,,Overcast,0,2012-12-13 12:15:00
6:35 AM,25.9,23.4,90,29.99,1.8,West,3.5,-,N/A,Snow,Light Snow,270,2012-12-13 12:35:00
6:55 AM,25.3,23.9,94,30.00,1.0,Calm,Calm,-,N/A,Snow,Snow,0,2012-12-13 12:55:00
7:15 AM,25.2,24.1,96,30.00,1.2,NW,3.5,-,N/A,Snow,Light Snow,320,2012-12-13 13:15:00
7:35 AM,25.3,24.1,95,30.01,1.5,NNW,3.5,-,0.02,Snow,Light Snow,340,2012-12-13 13:35:00
7:55 AM,25.2,23.9,95,30.01,2.0,NNW,3.5,-,0.02,Snow,Light Snow,340,2012-12-13 13:55:00
8:15 AM,25.3,24.3,96,30.01,2.0,Calm,Calm,-,N/A,Snow,Light Snow,0,2012-12-13 14:15:00
8:35 AM,25.3,23.4,92,30.01,5.0,North,3.5,-,N/A,Snow,Light Snow,360,2012-12-13 14:35:00
8:55 AM,25.5,22.8,89,30.01,7.0,Calm,Calm,-,N/A,,Overcast,0,2012-12-13 14:55:00
9:15 AM,25.7,22.6,88,30.02,7.0,NNW,3.5,-,N/A,,Overcast,330,2012-12-13 15:15:00
9:35 AM,26.2,21.9,84,30.02,7.0,NNW,3.5,-,N/A,,Overcast,340,2012-12-13 15:35:00
9:55 AM,26.2,21.4,82,30.03,10.0,NNW,4.6,-,N/A,,Overcast,330,2012-12-13 15:55:00
10:15 AM,26.1,20.3,79,30.04,10.0,NNW,5.8,-,N/A,,Overcast,330,2012-12-13 16:15:00
10:35 AM,25.9,19.4,76,30.04,10.0,North,5.8,-,N/A,,Overcast,350,2012-12-13 16:35:00
10:55 AM,26.1,18.7,74,30.03,10.0,North,5.8,-,N/A,,Mostly Cloudy,360,2012-12-13 16:55:00
11:15 AM,26.2,18.5,73,30.03,10.0,NNW,5.8,-,N/A,,Mostly Cloudy,340,2012-12-13 17:15:00
11:35 AM,27.1,18.9,71,30.03,10.0,North,3.5,-,N/A,,Mostly Cloudy,360,2012-12-13 17:35:00
11:55 AM,27.1,18.9,71,30.04,10.0,Calm,Calm,-,N/A,,Overcast,0,2012-12-13 17:55:00
12:15 PM,27.7,19.2,71,30.04,10.0,NNW,3.5,-,N/A,,Overcast,340,2012-12-13 18:15:00
12:35 PM,27.9,19.8,72,30.04,10.0,North,4.6,-,N/A,,Overcast,360,2012-12-13 18:35:00
12:55 PM,27.7,19.6,72,30.05,10.0,North,5.8,-,N/A,,Overcast,360,2012-12-13 18:55:00
1:15 PM,27.1,19.6,73,30.04,10.0,North,8.1,-,N/A,,Overcast,350,2012-12-13 19:15:00
1:35 PM,26.4,19.0,74,30.05,10.0,North,6.9,-,N/A,,Overcast,350,2012-12-13 19:35:00
1:55 PM,25.7,18.5,74,30.04,10.0,North,8.1,-,N/A,,Mostly Cloudy,350,2012-12-13 19:55:00
2:15 PM,24.8,17.6,74,30.05,10.0,North,4.6,-,N/A,,Scattered Clouds,350,2012-12-13 20:15:00
2:35 PM,24.4,17.6,75,30.05,10.0,North,5.8,-,N/A,,Clear,10,2012-12-13 20:35:00
2:55 PM,25.2,17.4,72,30.06,10.0,North,4.6,-,N/A,,Clear,360,2012-12-13 20:55:00
3:15 PM,24.8,17.1,72,30.07,10.0,North,4.6,-,N/A,,Clear,350,2012-12-13 21:15:00
3:35 PM,24.6,17.2,74,30.08,10.0,North,4.6,-,N/A,,Clear,360,2012-12-13 21:35:00
3:55 PM,24.1,16.7,73,30.09,10.0,North,4.6,-,N/A,,Clear,360,2012-12-13 21:55:00
4:15 PM,22.6,15.8,75,30.11,10.0,North,4.6,-,N/A,,Clear,350,2012-12-13 22:15:00
4:35 PM,21.0,15.6,80,30.11,10.0,NNW,4.6,-,N/A,,Clear,340,2012-12-13 22:35:00
6:15 PM,13.5,12.9,98,30.11,10.0,North,3.5,-,N/A,,Clear,350,2012-12-14 00:15:00
7:15 PM,12.0,11.3,97,30.13,10.0,Calm,Calm,-,N/A,,Clear,0,2012-12-14 01:15:00
7:35 PM,11.5,10.4,95,30.13,7.0,WNW,3.5,-,N/A,,Clear,300,2012-12-14 01:35:00
7:55 PM,10.2,8.6,93,30.14,10.0,Calm,Calm,-,N/A,,Scattered Clouds,0,2012-12-14 01:55:00
8:15 PM,10.6,9.3,95,30.15,10.0,WSW,3.5,-,N/A,,Scattered Clouds,250,2012-12-14 02:15:00
8:35 PM,10.2,8.4,92,30.15,10.0,Calm,Calm,-,N/A,,Scattered Clouds,0,2012-12-14 02:35:00
8:55 PM,8.2,6.3,92,30.15,10.0,Calm,Calm,-,N/A,,Clear,0,2012-12-14 02:55:00
9:15 PM,7.2,5.2,92,30.15,7.0,Calm,Calm,-,N/A,,Clear,0,2012-12-14 03:15:00
9:35 PM,5.9,3.4,89,30.15,2.5,Calm,Calm,-,N/A,,Scattered Clouds,0,2012-12-14 03:35:00
9:55 PM,7.7,5.5,91,30.15,10.0,Calm,Calm,-,N/A,,Clear,0,2012-12-14 03:55:00
10:15 PM,6.4,3.7,89,30.16,10.0,SW,4.6,-,N/A,,Clear,230,2012-12-14 04:15:00
10:35 PM,7.0,4.8,91,30.16,10.0,SW,4.6,-,N/A,,Clear,230,2012-12-14 04:35:00
10:55 PM,7.2,4.6,89,30.16,10.0,Calm,Calm,-,N/A,,Clear,0,2012-12-14 04:55:00
11:15 PM,7.3,5.0,90,30.16,10.0,Calm,Calm,-,N/A,,Clear,0,2012-12-14 05:15:00
11:35 PM,7.3,4.8,89,30.16,10.0,Calm,Calm,-,N/A,,Clear,0,2012-12-14 05:35:00
11:55 PM,6.3,3.6,89,30.16,7.0,Calm,Calm,-,N/A,,Clear,0,2012-12-14 05:55:00